Station Historical Data
Daily Summary for July 15, 2017 Units:  English    Metric   Both
Next Day »
Daily Weekly Monthly Yearly Custom
  High: Low: Average:
Temperature: 89.7 °F 69.8 °F 78.1 °F
Dew Point: 60.2 °F 47.4 °F 52.8 °F
Humidity: 57% 24% 43%
Wind Speed: 13.0mph 0.0mph 2.2mph
Wind Gust: 15.0mph - -
Wind- - SSE
Pressure: 30.00 in 29.92 in -
Precipitation: 0.00 in    
Historical Graphs
 
 
Tabular Data for July 15, 2017
Time Temperature Dew Point Pressure Wind Wind Speed Wind Gust Humidity Rainfall Rate (Hourly) solar Conditions
00:01 72.2 °F 53.6 °F 29.98 in ESE 1.0 mph 8.0 mph 52% 0.00 in 0.00 W/m2
00:06 72.1 °F 54.0 °F 29.98 in ESE 4.0 mph 8.0 mph 53% 0.00 in 0.00 W/m2
00:11 72.0 °F 54.0 °F 29.98 in East 9.0 mph 9.0 mph 53% 0.00 in 0.00 W/m2
00:16 72.0 °F 54.0 °F 29.98 in ESE 5.0 mph 13.0 mph 53% 0.00 in 0.00 W/m2
00:21 72.0 °F 53.4 °F 29.98 in ESE 8.0 mph 9.0 mph 52% 0.00 in 0.00 W/m2
00:26 71.9 °F 53.9 °F 29.98 in ESE 4.0 mph 9.0 mph 53% 0.00 in 0.00 W/m2
00:31 71.9 °F 53.9 °F 29.98 in ESE 5.0 mph 8.0 mph 53% 0.00 in 0.00 W/m2
00:36 71.9 °F 53.9 °F 29.98 in ESE 6.0 mph 12.0 mph 53% 0.00 in 0.00 W/m2
00:41 71.9 °F 53.3 °F 29.98 in East 8.0 mph 11.0 mph 52% 0.00 in 0.00 W/m2
00:46 71.9 °F 53.3 °F 29.98 in ESE 6.0 mph 9.0 mph 52% 0.00 in 0.00 W/m2
00:51 71.9 °F 53.3 °F 29.98 in ESE 4.0 mph 12.0 mph 52% 0.00 in 0.00 W/m2
00:56 71.9 °F 53.3 °F 29.98 in East 6.0 mph 12.0 mph 52% 0.00 in 0.00 W/m2
01:01 71.9 °F 53.3 °F 29.98 in East 5.0 mph 15.0 mph 52% 0.00 in 0.00 W/m2
01:06 71.9 °F 53.3 °F 29.98 in Calm   12.0 mph 52% 0.00 in 0.00 W/m2
01:11 72.0 °F 53.4 °F 29.97 in Calm   12.0 mph 52% 0.00 in 0.00 W/m2
01:16 72.0 °F 53.4 °F 29.97 in East 1.0 mph 11.0 mph 52% 0.00 in 0.00 W/m2
01:21 72.0 °F 53.4 °F 29.97 in East 4.0 mph 8.0 mph 52% 0.00 in 0.00 W/m2
01:26 72.0 °F 53.4 °F 29.97 in East 2.0 mph 11.0 mph 52% 0.00 in 0.00 W/m2
01:32 72.0 °F 53.4 °F 29.97 in ESE 8.0 mph 11.0 mph 52% 0.00 in 0.00 W/m2
01:37 72.0 °F 53.4 °F 29.97 in ESE 4.0 mph 11.0 mph 52% 0.00 in 0.00 W/m2
01:42 71.9 °F 52.8 °F 29.97 in ESE 6.0 mph 11.0 mph 51% 0.00 in 0.00 W/m2
01:47 71.9 °F 52.8 °F 29.97 in East 6.0 mph 11.0 mph 51% 0.00 in 0.00 W/m2
01:52 71.9 °F 52.8 °F 29.97 in East 9.0 mph 9.0 mph 51% 0.00 in 0.00 W/m2
01:57 71.9 °F 52.8 °F 29.97 in East 11.0 mph 12.0 mph 51% 0.00 in 0.00 W/m2
02:02 71.9 °F 52.8 °F 29.96 in ESE 4.0 mph 7.0 mph 51% 0.00 in 0.00 W/m2
02:07 71.9 °F 52.8 °F 29.97 in East 4.0 mph 13.0 mph 51% 0.00 in 0.00 W/m2
02:12 71.9 °F 52.8 °F 29.97 in ESE 6.0 mph 14.0 mph 51% 0.00 in 0.00 W/m2
02:17 71.9 °F 52.8 °F 29.96 in ESE 13.0 mph 13.0 mph 51% 0.00 in 0.00 W/m2
02:22 71.8 °F 52.7 °F 29.96 in ESE 7.0 mph 12.0 mph 51% 0.00 in 0.00 W/m2
02:27 71.8 °F 52.2 °F 29.96 in Calm   13.0 mph 50% 0.00 in 0.00 W/m2
02:32 71.8 °F 52.2 °F 29.96 in East 7.0 mph 13.0 mph 50% 0.00 in 0.00 W/m2
02:37 71.8 °F 52.2 °F 29.96 in ESE 9.0 mph 14.0 mph 50% 0.00 in 0.00 W/m2
02:42 71.7 °F 52.1 °F 29.96 in East 6.0 mph 11.0 mph 50% 0.00 in 0.00 W/m2
02:47 71.7 °F 52.1 °F 29.96 in East 5.0 mph 11.0 mph 50% 0.00 in 0.00 W/m2
02:52 71.6 °F 52.0 °F 29.96 in East 5.0 mph 13.0 mph 50% 0.00 in 0.00 W/m2
02:54 71.6 °F 52.0 °F 29.96 in East 12.0 mph 13.0 mph 50% 0.00 in 0.00 W/m2
02:59 71.5 °F 51.9 °F 29.96 in ESE 11.0 mph 12.0 mph 50% 0.00 in 0.00 W/m2
03:04 71.5 °F 51.9 °F 29.96 in East 4.0 mph 14.0 mph 50% 0.00 in 0.00 W/m2
03:09 71.4 °F 51.8 °F 29.96 in Calm   13.0 mph 50% 0.00 in 0.00 W/m2
03:14 71.4 °F 51.8 °F 29.96 in ESE 8.0 mph 12.0 mph 50% 0.00 in 0.00 W/m2
03:19 71.4 °F 51.8 °F 29.96 in East 1.0 mph 14.0 mph 50% 0.00 in 0.00 W/m2
03:24 71.3 °F 51.7 °F 29.96 in East 6.0 mph 14.0 mph 50% 0.00 in 0.00 W/m2
03:29 71.3 °F 51.2 °F 29.96 in ESE 9.0 mph 14.0 mph 49% 0.00 in 0.00 W/m2
03:34 71.3 °F 51.2 °F 29.96 in ESE 7.0 mph 14.0 mph 49% 0.00 in 0.00 W/m2
03:39 71.3 °F 51.2 °F 29.96 in East 9.0 mph 13.0 mph 49% 0.00 in 0.00 W/m2
03:44 71.3 °F 51.2 °F 29.96 in ESE 1.0 mph 12.0 mph 49% 0.00 in 0.00 W/m2
03:49 71.2 °F 51.1 °F 29.96 in East 7.0 mph 13.0 mph 49% 0.00 in 0.00 W/m2
03:54 71.2 °F 51.1 °F 29.96 in East 8.0 mph 12.0 mph 49% 0.00 in 0.00 W/m2
04:00 71.2 °F 51.1 °F 29.96 in East 5.0 mph 15.0 mph 49% 0.00 in 0.00 W/m2
04:05 71.2 °F 51.1 °F 29.96 in East 5.0 mph 15.0 mph 49% 0.00 in 0.00 W/m2
04:10 71.2 °F 50.5 °F 29.96 in ESE 5.0 mph 13.0 mph 48% 0.00 in 0.00 W/m2
04:15 71.1 °F 50.4 °F 29.96 in East 5.0 mph 12.0 mph 48% 0.00 in 0.00 W/m2
04:20 71.1 °F 50.4 °F 29.96 in East 2.0 mph 13.0 mph 48% 0.00 in 0.00 W/m2
04:25 71.1 °F 50.4 °F 29.96 in East 4.0 mph 12.0 mph 48% 0.00 in 0.00 W/m2
04:30 71.1 °F 50.4 °F 29.96 in ESE 2.0 mph 12.0 mph 48% 0.00 in 0.00 W/m2
04:31 71.1 °F 50.4 °F 29.96 in East 7.0 mph 7.0 mph 48% 0.00 in 0.00 W/m2
04:36 71.0 °F 50.3 °F 29.96 in Calm   7.0 mph 48% 0.00 in 0.00 W/m2
04:41 71.0 °F 50.3 °F 29.96 in East 11.0 mph 11.0 mph 48% 0.00 in 0.00 W/m2
04:46 71.0 °F 49.8 °F 29.96 in Calm   7.0 mph 47% 0.00 in 0.00 W/m2
04:51 71.0 °F 49.8 °F 29.96 in Calm   7.0 mph 47% 0.00 in 0.00 W/m2
04:56 70.9 °F 50.2 °F 29.96 in East 2.0 mph 12.0 mph 48% 0.00 in 0.00 W/m2
05:01 70.9 °F 50.2 °F 29.97 in East 7.0 mph 9.0 mph 48% 0.00 in 0.00 W/m2
05:06 70.8 °F 49.6 °F 29.97 in East 12.0 mph 12.0 mph 47% 0.00 in 0.00 W/m2
05:11 70.8 °F 50.2 °F 29.97 in ESE 4.0 mph 4.0 mph 48% 0.00 in 0.00 W/m2
05:16 70.7 °F 50.1 °F 29.97 in ESE 8.0 mph 13.0 mph 48% 0.00 in 0.00 W/m2
05:21 70.6 °F 50.0 °F 29.97 in ESE 11.0 mph 11.0 mph 48% 0.00 in 0.00 W/m2
05:26 70.5 °F 49.3 °F 29.97 in ESE 5.0 mph 11.0 mph 47% 0.00 in 0.00 W/m2
05:31 70.5 °F 49.3 °F 29.97 in Calm   14.0 mph 47% 0.00 in 0.00 W/m2
05:36 70.4 °F 49.2 °F 29.97 in Calm   4.0 mph 47% 0.00 in 0.00 W/m2
05:41 70.4 °F 49.2 °F 29.97 in East 6.0 mph 11.0 mph 47% 0.00 in 0.00 W/m2
05:46 70.4 °F 49.2 °F 29.97 in ESE 1.0 mph 9.0 mph 47% 0.00 in 0.00 W/m2
05:51 70.3 °F 49.1 °F 29.97 in ESE 9.0 mph 9.0 mph 47% 0.00 in 5.00 W/m2
05:56 70.3 °F 49.1 °F 29.97 in ESE 8.0 mph 9.0 mph 47% 0.00 in 7.00 W/m2
06:01 70.3 °F 49.1 °F 29.97 in Calm   11.0 mph 47% 0.00 in 9.00 W/m2
06:06 70.2 °F 49.0 °F 29.97 in ESE 8.0 mph 11.0 mph 47% 0.00 in 12.00 W/m2
06:11 70.2 °F 48.5 °F 29.97 in ESE 6.0 mph 11.0 mph 46% 0.00 in 14.00 W/m2
06:16 70.1 °F 48.4 °F 29.98 in East 2.0 mph 4.0 mph 46% 0.00 in 18.00 W/m2
06:21 70.1 °F 48.4 °F 29.98 in East 4.0 mph 8.0 mph 46% 0.00 in 23.00 W/m2
06:26 70.1 °F 49.0 °F 29.97 in Calm   11.0 mph 47% 0.00 in 30.00 W/m2
06:31 70.0 °F 48.9 °F 29.98 in Calm   9.0 mph 47% 0.00 in 42.00 W/m2
06:36 70.0 °F 48.9 °F 29.97 in ESE 2.0 mph 8.0 mph 47% 0.00 in 53.00 W/m2
06:42 70.0 °F 48.9 °F 29.98 in Calm   7.0 mph 47% 0.00 in 63.00 W/m2
06:47 69.9 °F 48.8 °F 29.98 in ESE 8.0 mph 11.0 mph 47% 0.00 in 81.00 W/m2
06:52 69.9 °F 48.8 °F 29.98 in ESE 6.0 mph 8.0 mph 47% 0.00 in 95.00 W/m2
06:57 69.9 °F 48.8 °F 29.98 in East 2.0 mph 9.0 mph 47% 0.00 in 113.00 W/m2
07:02 69.9 °F 48.8 °F 29.98 in Calm   8.0 mph 47% 0.00 in 130.00 W/m2
07:07 69.8 °F 48.7 °F 29.98 in ESE 6.0 mph 9.0 mph 47% 0.00 in 148.00 W/m2
07:12 69.9 °F 48.8 °F 29.98 in ESE 7.0 mph 8.0 mph 47% 0.00 in 167.00 W/m2
07:17 69.8 °F 48.7 °F 29.98 in East 5.0 mph 9.0 mph 47% 0.00 in 188.00 W/m2
07:22 69.8 °F 49.2 °F 29.98 in Calm   8.0 mph 48% 0.00 in 204.00 W/m2
07:27 69.9 °F 49.3 °F 29.98 in Calm   8.0 mph 48% 0.00 in 223.00 W/m2
07:32 69.9 °F 49.3 °F 29.99 in ESE 6.0 mph 11.0 mph 48% 0.00 in 243.00 W/m2
07:37 69.9 °F 49.9 °F 29.99 in East 2.0 mph 6.0 mph 49% 0.00 in 260.00 W/m2
07:42 69.9 °F 49.9 °F 29.99 in East 7.0 mph 11.0 mph 49% 0.00 in 279.00 W/m2
07:47 69.9 °F 50.4 °F 29.99 in East 6.0 mph 6.0 mph 50% 0.00 in 297.00 W/m2
07:52 69.9 °F 51.0 °F 29.99 in Calm   9.0 mph 51% 0.00 in 313.00 W/m2
07:57 69.9 °F 51.0 °F 29.99 in East 7.0 mph 7.0 mph 51% 0.00 in 327.00 W/m2
08:02 69.9 °F 51.0 °F 29.99 in East 6.0 mph 9.0 mph 51% 0.00 in 343.00 W/m2
08:04 70.0 °F 51.1 °F 29.99 in East 4.0 mph 9.0 mph 51% 0.00 in 352.00 W/m2
08:09 70.1 °F 51.2 °F 29.99 in Calm   8.0 mph 51% 0.00 in 369.00 W/m2
08:14 70.2 °F 51.8 °F 29.99 in Calm   11.0 mph 52% 0.00 in 387.00 W/m2
08:19 70.3 °F 51.9 °F 29.99 in ESE 6.0 mph 9.0 mph 52% 0.00 in 401.00 W/m2
08:24 70.4 °F 52.5 °F 29.99 in Calm   7.0 mph 53% 0.00 in 417.00 W/m2
08:29 70.5 °F 52.6 °F 29.99 in ESE 7.0 mph 7.0 mph 53% 0.00 in 431.00 W/m2
08:34 70.7 °F 52.8 °F 29.99 in Calm   7.0 mph 53% 0.00 in 445.00 W/m2
08:39 70.9 °F 53.4 °F 29.99 in ESE 1.0 mph 7.0 mph 54% 0.00 in 462.00 W/m2
08:44 71.1 °F 53.1 °F 29.99 in Calm   6.0 mph 53% 0.00 in 478.00 W/m2
08:49 71.3 °F 53.8 °F 29.99 in ESE 6.0 mph 6.0 mph 54% 0.00 in 492.00 W/m2
08:55 71.6 °F 54.1 °F 29.99 in Calm   5.0 mph 54% 0.00 in 508.00 W/m2
09:00 71.8 °F 54.3 °F 29.99 in Calm   1.0 mph 54% 0.00 in 522.00 W/m2
09:05 72.1 °F 55.1 °F 30.00 in Calm   6.0 mph 55% 0.00 in 538.00 W/m2
09:10 72.5 °F 55.9 °F 30.00 in Calm     56% 0.00 in 552.00 W/m2
09:15 72.9 °F 56.8 °F 30.00 in Calm     57% 0.00 in 566.00 W/m2
09:20 73.3 °F 57.2 °F 30.00 in Calm     57% 0.00 in 582.00 W/m2
09:25 73.7 °F 57.0 °F 30.00 in Calm     56% 0.00 in 596.00 W/m2
09:30 74.0 °F 57.8 °F 30.00 in Calm     57% 0.00 in 612.00 W/m2
09:35 74.3 °F 57.1 °F 30.00 in Calm     55% 0.00 in 624.00 W/m2
09:40 74.6 °F 56.4 °F 30.00 in Calm     53% 0.00 in 640.00 W/m2
09:45 75.0 °F 55.7 °F 30.00 in Calm     51% 0.00 in 652.00 W/m2
09:50 75.6 °F 55.7 °F 30.00 in Calm     50% 0.00 in 666.00 W/m2
09:52 75.8 °F 56.4 °F 30.00 in Calm     51% 0.00 in 670.00 W/m2
09:57 76.4 °F 57.5 °F 30.00 in Calm     52% 0.00 in 680.00 W/m2
10:02 77.0 °F 55.8 °F 30.00 in Calm     48% 0.00 in 694.00 W/m2
10:07 77.7 °F 57.0 °F 30.00 in Calm     49% 0.00 in 705.00 W/m2
10:12 78.2 °F 55.8 °F 30.00 in Calm     46% 0.00 in 717.00 W/m2
10:17 78.5 °F 56.6 °F 30.00 in Calm     47% 0.00 in 729.00 W/m2
10:22 78.8 °F 56.3 °F 30.00 in Calm     46% 0.00 in 742.00 W/m2
10:27 79.2 °F 56.0 °F 30.00 in Calm     45% 0.00 in 756.00 W/m2
10:32 79.6 °F 58.2 °F 30.00 in Calm     48% 0.00 in 766.00 W/m2
10:37 80.0 °F 56.2 °F 30.00 in Calm     44% 0.00 in 777.00 W/m2
10:42 80.3 °F 55.1 °F 30.00 in Calm     42% 0.00 in 782.00 W/m2
10:47 80.7 °F 54.8 °F 30.00 in Calm     41% 0.00 in 793.00 W/m2
10:52 80.9 °F 54.3 °F 30.00 in Calm     40% 0.00 in 807.00 W/m2
10:57 81.3 °F 57.3 °F 30.00 in Calm   4.0 mph 44% 0.00 in 814.00 W/m2
11:02 81.6 °F 57.0 °F 30.00 in ESE 4.0 mph 5.0 mph 43% 0.00 in 823.00 W/m2
11:07 81.9 °F 55.2 °F 30.00 in Calm   2.0 mph 40% 0.00 in 831.00 W/m2
11:12 82.1 °F 54.7 °F 30.00 in Calm   1.0 mph 39% 0.00 in 831.00 W/m2
11:17 82.3 °F 55.6 °F 30.00 in Calm     40% 0.00 in 846.00 W/m2
11:22 82.5 °F 55.8 °F 30.00 in East 2.0 mph 2.0 mph 40% 0.00 in 849.00 W/m2
11:27 82.8 °F 56.0 °F 30.00 in North 2.0 mph 3.0 mph 40% 0.00 in 858.00 W/m2
11:32 83.0 °F 54.8 °F 30.00 in Calm   3.0 mph 38% 0.00 in 861.00 W/m2
11:37 83.4 °F 55.9 °F 30.00 in Calm   1.0 mph 39% 0.00 in 872.00 W/m2
11:42 83.6 °F 56.8 °F 30.00 in NNW 1.0 mph 3.0 mph 40% 0.00 in 879.00 W/m2
11:47 83.7 °F 55.4 °F 30.00 in Calm     38% 0.00 in 888.00 W/m2
11:52 84.0 °F 55.7 °F 30.00 in Calm   1.0 mph 38% 0.00 in 893.00 W/m2
11:54 84.1 °F 55.0 °F 30.00 in Calm   1.0 mph 37% 0.00 in 891.00 W/m2
12:00 84.3 °F 56.0 °F 30.00 in NW 3.0 mph 4.0 mph 38% 0.00 in 896.00 W/m2
12:01 84.4 °F 55.3 °F 30.00 in NW 1.0 mph 3.0 mph 37% 0.00 in 900.00 W/m2
12:06 84.8 °F 55.7 °F 30.00 in NW 1.0 mph 4.0 mph 37% 0.00 in 907.00 W/m2
12:11 85.2 °F 53.7 °F 30.00 in NW 2.0 mph 3.0 mph 34% 0.00 in 912.00 W/m2
12:16 85.7 °F 55.7 °F 30.00 in WNW 4.0 mph 4.0 mph 36% 0.00 in 912.00 W/m2
12:21 85.9 °F 54.3 °F 29.99 in WNW 3.0 mph 3.0 mph 34% 0.00 in 921.00 W/m2
12:26 86.3 °F 53.8 °F 29.99 in Calm   2.0 mph 33% 0.00 in 925.00 W/m2
12:31 86.7 °F 51.6 °F 29.99 in Calm   4.0 mph 30% 0.00 in 930.00 W/m2
12:36 87.0 °F 51.8 °F 30.00 in WNW 1.0 mph 2.0 mph 30% 0.00 in 926.00 W/m2
12:41 87.3 °F 52.1 °F 29.99 in West 2.0 mph 2.0 mph 30% 0.00 in 930.00 W/m2
12:46 87.7 °F 51.5 °F 29.99 in Calm   1.0 mph 29% 0.00 in 930.00 W/m2
12:51 87.8 °F 50.7 °F 29.99 in Calm   3.0 mph 28% 0.00 in 933.00 W/m2
12:56 87.9 °F 50.8 °F 29.99 in West 4.0 mph 4.0 mph 28% 0.00 in 937.00 W/m2
12:57 87.9 °F 50.8 °F 29.99 in West 2.0 mph 4.0 mph 28% 0.00 in 937.00 W/m2
13:02 87.9 °F 51.7 °F 29.99 in Calm   1.0 mph 29% 0.00 in 939.00 W/m2
13:07 88.2 °F 52.0 °F 29.99 in West 2.0 mph 2.0 mph 29% 0.00 in 939.00 W/m2
13:12 88.4 °F 48.1 °F 29.99 in Calm   1.0 mph 25% 0.00 in 940.00 W/m2
13:17 88.8 °F 47.4 °F 29.99 in Calm   1.0 mph 24% 0.00 in 935.00 W/m2
13:22 89.0 °F 50.7 °F 29.99 in Calm     27% 0.00 in 935.00 W/m2
13:27 88.8 °F 50.5 °F 29.99 in West 4.0 mph 5.0 mph 27% 0.00 in 940.00 W/m2
13:32 88.8 °F 48.5 °F 29.99 in Calm   1.0 mph 25% 0.00 in 930.00 W/m2
13:37 88.9 °F 47.5 °F 29.99 in Calm   1.0 mph 24% 0.00 in 923.00 W/m2
13:42 89.0 °F 49.7 °F 29.99 in Calm   1.0 mph 26% 0.00 in 923.00 W/m2
13:47 89.2 °F 50.9 °F 29.99 in Calm     27% 0.00 in 916.00 W/m2
13:52 89.3 °F 51.0 °F 29.99 in Calm   2.0 mph 27% 0.00 in 907.00 W/m2
13:57 89.3 °F 53.8 °F 29.99 in West 2.0 mph 4.0 mph 30% 0.00 in 909.00 W/m2
14:02 89.4 °F 56.5 °F 29.98 in WSW 2.0 mph 7.0 mph 33% 0.00 in 905.00 W/m2
14:07 89.6 °F 55.9 °F 29.98 in Calm   4.0 mph 32% 0.00 in 893.00 W/m2
14:12 89.7 °F 56.0 °F 29.98 in Calm   8.0 mph 32% 0.00 in 889.00 W/m2
14:17 89.7 °F 56.8 °F 29.98 in Calm   7.0 mph 33% 0.00 in 884.00 W/m2
14:22 89.4 °F 57.4 °F 29.98 in WNW 2.0 mph 2.0 mph 34% 0.00 in 886.00 W/m2
14:27 89.2 °F 57.2 °F 29.98 in Calm   4.0 mph 34% 0.00 in 884.00 W/m2
14:32 89.1 °F 57.1 °F 29.98 in West 2.0 mph 7.0 mph 34% 0.00 in 872.00 W/m2
14:37 89.2 °F 57.2 °F 29.98 in Calm   5.0 mph 34% 0.00 in 872.00 W/m2
14:42 89.5 °F 55.8 °F 29.97 in Calm   1.0 mph 32% 0.00 in 860.00 W/m2
14:47 89.4 °F 55.7 °F 29.97 in WNW 2.0 mph 7.0 mph 32% 0.00 in 856.00 W/m2
14:52 89.3 °F 56.5 °F 29.97 in WNW 8.0 mph 8.0 mph 33% 0.00 in 847.00 W/m2
14:57 89.2 °F 54.6 °F 29.97 in Calm   3.0 mph 31% 0.00 in 844.00 W/m2
15:02 89.2 °F 54.6 °F 29.97 in West 6.0 mph 6.0 mph 31% 0.00 in 830.00 W/m2
15:07 89.3 °F 56.5 °F 29.97 in Calm   1.0 mph 33% 0.00 in 824.00 W/m2
15:08 89.3 °F 56.5 °F 29.97 in West 3.0 mph 3.0 mph 33% 0.00 in 824.00 W/m2
15:13 89.1 °F 54.6 °F 29.97 in Calm   7.0 mph 31% 0.00 in 819.00 W/m2
15:15 89.0 °F 54.5 °F 29.97 in Calm   7.0 mph 31% 0.00 in 812.00 W/m2
15:20 89.0 °F 55.3 °F 29.97 in Calm   7.0 mph 32% 0.00 in 803.00 W/m2
15:25 88.9 °F 53.5 °F 29.97 in WNW 3.0 mph 5.0 mph 30% 0.00 in 796.00 W/m2
15:30 88.8 °F 55.2 °F 29.97 in SW 6.0 mph 7.0 mph 32% 0.00 in 786.00 W/m2
15:35 88.7 °F 55.9 °F 29.97 in West 1.0 mph 5.0 mph 33% 0.00 in 777.00 W/m2
15:40 88.7 °F 53.3 °F 29.96 in West 1.0 mph 5.0 mph 30% 0.00 in 795.00 W/m2
15:45 88.6 °F 52.3 °F 29.97 in Calm   9.0 mph 29% 0.00 in 802.00 W/m2
15:50 88.4 °F 54.0 °F 29.97 in West 6.0 mph 7.0 mph 31% 0.00 in 758.00 W/m2
15:55 88.4 °F 53.1 °F 29.97 in Calm   8.0 mph 30% 0.00 in 745.00 W/m2
16:00 88.4 °F 52.1 °F 29.97 in Calm   5.0 mph 29% 0.00 in 738.00 W/m2
16:05 88.4 °F 51.2 °F 29.97 in West 4.0 mph 7.0 mph 28% 0.00 in 698.00 W/m2
16:10 88.5 °F 51.3 °F 29.97 in West 1.0 mph 8.0 mph 28% 0.00 in 234.00 W/m2
16:15 88.5 °F 50.3 °F 29.97 in Calm   6.0 mph 27% 0.00 in 789.00 W/m2
16:17 88.5 °F 51.3 °F 29.96 in Calm   2.0 mph 28% 0.00 in 784.00 W/m2
16:22 88.4 °F 52.1 °F 29.97 in West 1.0 mph 3.0 mph 29% 0.00 in 786.00 W/m2
16:27 88.3 °F 50.1 °F 29.97 in WNW 5.0 mph 6.0 mph 27% 0.00 in 691.00 W/m2
16:32 88.5 °F 49.3 °F 29.96 in WSW 4.0 mph 7.0 mph 26% 0.00 in 633.00 W/m2
16:37 88.6 °F 51.4 °F 29.96 in Calm   3.0 mph 28% 0.00 in 756.00 W/m2
16:42 88.6 °F 50.4 °F 29.96 in WSW 5.0 mph 6.0 mph 27% 0.00 in 798.00 W/m2
16:47 88.6 °F 49.4 °F 29.96 in Calm   2.0 mph 26% 0.00 in 645.00 W/m2
16:52 88.5 °F 52.2 °F 29.96 in NW 6.0 mph 8.0 mph 29% 0.00 in 503.00 W/m2
16:57 88.3 °F 50.1 °F 29.96 in Calm   3.0 mph 27% 0.00 in 374.00 W/m2
17:02 88.1 °F 51.9 °F 29.96 in Calm   4.0 mph 29% 0.00 in 480.00 W/m2
17:07 87.8 °F 51.6 °F 29.96 in Calm   2.0 mph 29% 0.00 in 441.00 W/m2
17:12 87.6 °F 53.3 °F 29.96 in Calm   3.0 mph 31% 0.00 in 276.00 W/m2
17:17 87.3 °F 53.0 °F 29.96 in Calm   1.0 mph 31% 0.00 in 343.00 W/m2
17:22 86.9 °F 52.7 °F 29.96 in Calm   5.0 mph 31% 0.00 in 434.00 W/m2
17:28 86.6 °F 53.3 °F 29.96 in Calm   4.0 mph 32% 0.00 in 434.00 W/m2
17:33 86.3 °F 53.8 °F 29.96 in Calm   2.0 mph 33% 0.00 in 529.00 W/m2
17:38 86.0 °F 54.4 °F 29.96 in Calm   4.0 mph 34% 0.00 in 369.00 W/m2
17:43 85.9 °F 54.3 °F 29.96 in Calm   2.0 mph 34% 0.00 in 406.00 W/m2
17:48 85.7 °F 54.9 °F 29.96 in Calm   1.0 mph 35% 0.00 in 406.00 W/m2
17:53 85.6 °F 54.0 °F 29.95 in Calm   1.0 mph 34% 0.00 in 350.00 W/m2
17:58 85.4 °F 53.9 °F 29.95 in Calm   1.0 mph 34% 0.00 in 304.00 W/m2
18:03 85.2 °F 54.5 °F 29.95 in Calm     35% 0.00 in 225.00 W/m2
18:08 84.8 °F 54.9 °F 29.95 in Calm     36% 0.00 in 214.00 W/m2
18:13 84.6 °F 55.5 °F 29.95 in Calm     37% 0.00 in 206.00 W/m2
18:18 84.4 °F 56.0 °F 29.95 in Calm     38% 0.00 in 195.00 W/m2
18:23 84.2 °F 55.1 °F 29.95 in Calm     37% 0.00 in 265.00 W/m2
18:28 84.0 °F 55.0 °F 29.95 in Calm     37% 0.00 in 183.00 W/m2
18:33 83.8 °F 56.2 °F 29.95 in Calm     39% 0.00 in 225.00 W/m2
18:38 83.6 °F 56.0 °F 29.95 in Calm     39% 0.00 in 188.00 W/m2
18:43 83.5 °F 58.7 °F 29.95 in Calm     43% 0.00 in 206.00 W/m2
18:48 83.1 °F 60.2 °F 29.95 in Calm     46% 0.00 in 181.00 W/m2
18:53 82.7 °F 59.8 °F 29.94 in Calm     46% 0.00 in 156.00 W/m2
18:58 82.1 °F 59.3 °F 29.94 in Calm   1.0 mph 46% 0.00 in 128.00 W/m2
19:03 81.7 °F 58.3 °F 29.94 in Calm   1.0 mph 45% 0.00 in 98.00 W/m2
19:08 81.2 °F 57.9 °F 29.94 in Calm   1.0 mph 45% 0.00 in 95.00 W/m2
19:13 80.7 °F 58.0 °F 29.94 in Calm   1.0 mph 46% 0.00 in 84.00 W/m2
19:14 80.7 °F 58.0 °F 29.94 in Calm   1.0 mph 46% 0.00 in 83.00 W/m2
19:19 80.2 °F 57.6 °F 29.94 in Calm   1.0 mph 46% 0.00 in 74.00 W/m2
19:24 79.6 °F 57.0 °F 29.94 in Calm   1.0 mph 46% 0.00 in 65.00 W/m2
19:26 79.4 °F 56.8 °F 29.94 in Calm     46% 0.00 in 62.00 W/m2
19:31 79.0 °F 56.5 °F 29.94 in Calm     46% 0.00 in 54.00 W/m2
19:36 78.6 °F 56.1 °F 29.94 in Calm     46% 0.00 in 54.00 W/m2
19:41 78.4 °F 55.3 °F 29.94 in Calm     45% 0.00 in 54.00 W/m2
19:46 78.1 °F 55.0 °F 29.94 in Calm     45% 0.00 in 58.00 W/m2
19:51 77.9 °F 54.3 °F 29.94 in Calm   1.0 mph 44% 0.00 in 56.00 W/m2
19:56 77.7 °F 54.1 °F 29.94 in Calm   1.0 mph 44% 0.00 in 51.00 W/m2
20:01 77.6 °F 54.0 °F 29.94 in WNW 3.0 mph 4.0 mph 44% 0.00 in 46.00 W/m2
20:06 77.5 °F 53.3 °F 29.94 in Calm   4.0 mph 43% 0.00 in 39.00 W/m2
20:11 77.5 °F 53.3 °F 29.94 in NW 3.0 mph 3.0 mph 43% 0.00 in 30.00 W/m2
20:16 77.5 °F 53.3 °F 29.93 in Calm   3.0 mph 43% 0.00 in 25.00 W/m2
20:21 77.5 °F 53.3 °F 29.93 in NW 5.0 mph 5.0 mph 43% 0.00 in 23.00 W/m2
20:26 77.6 °F 53.4 °F 29.93 in Calm     43% 0.00 in 18.00 W/m2
20:31 77.6 °F 52.7 °F 29.94 in Calm   2.0 mph 42% 0.00 in 9.00 W/m2
20:33 77.6 °F 52.7 °F 29.94 in Calm   4.0 mph 42% 0.00 in 7.00 W/m2
20:38 77.6 °F 52.7 °F 29.94 in Calm   1.0 mph 42% 0.00 in 0.00 W/m2
20:43 77.5 °F 53.3 °F 29.93 in Calm   1.0 mph 43% 0.00 in 0.00 W/m2
20:48 77.3 °F 52.5 °F 29.94 in Calm     42% 0.00 in 0.00 W/m2
20:53 77.2 °F 52.4 °F 29.94 in Calm     42% 0.00 in 0.00 W/m2
20:58 77.1 °F 51.6 °F 29.94 in Calm     41% 0.00 in 0.00 W/m2
21:03 77.0 °F 51.5 °F 29.94 in Calm     41% 0.00 in 0.00 W/m2
21:08 76.7 °F 51.2 °F 29.94 in Calm     41% 0.00 in 0.00 W/m2
21:13 76.4 °F 50.3 °F 29.94 in Calm   1.0 mph 40% 0.00 in 0.00 W/m2
21:18 76.2 °F 50.1 °F 29.94 in Calm   1.0 mph 40% 0.00 in 0.00 W/m2
21:23 76.0 °F 49.3 °F 29.94 in Calm   1.0 mph 39% 0.00 in 0.00 W/m2
21:28 75.9 °F 49.2 °F 29.94 in Calm     39% 0.00 in 0.00 W/m2
21:33 75.8 °F 49.1 °F 29.94 in Calm   3.0 mph 39% 0.00 in 0.00 W/m2
21:38 75.8 °F 49.1 °F 29.93 in NW 1.0 mph 2.0 mph 39% 0.00 in 0.00 W/m2
21:43 75.8 °F 48.4 °F 29.93 in Calm   1.0 mph 38% 0.00 in 0.00 W/m2
21:48 75.8 °F 49.1 °F 29.93 in Calm   5.0 mph 39% 0.00 in 0.00 W/m2
21:53 75.8 °F 49.1 °F 29.93 in NNW 1.0 mph 7.0 mph 39% 0.00 in 0.00 W/m2
21:58 75.9 °F 49.2 °F 29.93 in NNW 3.0 mph 5.0 mph 39% 0.00 in 0.00 W/m2
22:03 75.9 °F 49.2 °F 29.93 in Calm   6.0 mph 39% 0.00 in 0.00 W/m2
22:08 76.0 °F 50.0 °F 29.93 in Calm   5.0 mph 40% 0.00 in 0.00 W/m2
22:13 76.0 °F 50.0 °F 29.93 in Calm   6.0 mph 40% 0.00 in 0.00 W/m2
22:18 75.9 °F 49.9 °F 29.93 in Calm   5.0 mph 40% 0.00 in 0.00 W/m2
22:23 76.0 °F 50.6 °F 29.93 in Calm   4.0 mph 41% 0.00 in 0.00 W/m2
22:28 75.9 °F 50.5 °F 29.93 in Calm   3.0 mph 41% 0.00 in 0.00 W/m2
22:33 75.9 °F 50.5 °F 29.93 in Calm   1.0 mph 41% 0.00 in 0.00 W/m2
22:38 75.9 °F 50.5 °F 29.93 in Calm   1.0 mph 41% 0.00 in 0.00 W/m2
22:43 75.9 °F 51.2 °F 29.93 in NNE 1.0 mph 4.0 mph 42% 0.00 in 0.00 W/m2
22:48 75.9 °F 51.2 °F 29.93 in Calm   6.0 mph 42% 0.00 in 0.00 W/m2
22:53 75.8 °F 51.1 °F 29.93 in Calm   5.0 mph 42% 0.00 in 0.00 W/m2
22:58 75.8 °F 51.1 °F 29.93 in NNE 4.0 mph 6.0 mph 42% 0.00 in 0.00 W/m2
23:03 75.7 °F 51.6 °F 29.93 in Calm   5.0 mph 43% 0.00 in 0.00 W/m2
23:08 75.7 °F 52.3 °F 29.93 in NE 3.0 mph 6.0 mph 44% 0.00 in 0.00 W/m2
23:11 75.6 °F 52.2 °F 29.93 in NE 5.0 mph 5.0 mph 44% 0.00 in 0.00 W/m2
23:16 75.5 °F 52.7 °F 29.93 in NE 3.0 mph 4.0 mph 45% 0.00 in 0.00 W/m2
23:21 75.5 °F 52.7 °F 29.93 in ENE 4.0 mph 5.0 mph 45% 0.00 in 0.00 W/m2
23:26 75.4 °F 52.6 °F 29.93 in Calm     45% 0.00 in 0.00 W/m2
23:31 75.3 °F 52.5 °F 29.93 in Calm   1.0 mph 45% 0.00 in 0.00 W/m2
23:36 75.2 °F 52.4 °F 29.93 in Calm     45% 0.00 in 0.00 W/m2
23:41 75.2 °F 53.0 °F 29.93 in Calm     46% 0.00 in 0.00 W/m2
23:46 75.2 °F 53.0 °F 29.93 in Calm   1.0 mph 46% 0.00 in 0.00 W/m2
23:51 75.1 °F 52.9 °F 29.93 in Calm   1.0 mph 46% 0.00 in 0.00 W/m2
23:56 74.9 °F 52.8 °F 29.92 in Calm   1.0 mph 46% 0.00 in 0.00 W/m2
Foresthill Weather
 WU-history PHP script courtesy of   Juneau County Weather.
powered by Cumulus v1.9.3 (1059)
Ambient Weather VWS v14.00
Top Contact Website Map Copyright © 2007 - 2018 Foresthillweather.com Never base important decisions on this or any weather information obtained from the Internet